Weather in Maldonado

Uruguay     34°52′47″S   54°58′02″W
temp.,
°C
wind,
m/s
gust,
m/s
humid.,
%
clouds,
%
prec.,
mm/h
press.,
hPa
HPBL,
m
23 october, sat
sat2300:00+16se7790100 1.1 1011464
03:00+15se779099 1.3 1009441
06:00+15se4489100 0.1 1008404
09:00+16s2187100 0.4 1009202
12:00+16wsw3386100 0.4 1007337
15:00+16wsw6683100 0.9 1006529
18:00+16sw7881100 0.1 1006741
21:00+16s897680 2.3 1008813
24 october, sun
sun2400:00+16ssw69710 0.3 1009603
03:00+15ssw1112660 0.3 10101138
06:00+14ssw77600 0.0 1011824
09:00+14ssw66570 0.0 1015883
12:00+14wsw44550 0.0 1015769
15:00+15wsw57540 0.0 1014463
18:00+17nnw23530 0.0 1013167
21:00+17n613690 0.0 1013310
25 october, mon
mon2500:00+18nnw1118580 0.0 1012445
03:00+17nw1320580 0.0 1011384
06:00+17nw1322580 0.0 1011438
09:00+18nw1321590 0.0 1012445
12:00+21wnw1217570 0.0 1011249
15:00+22wnw1116600 0.0 1010172
18:00+21nw711690 0.0 101090
21:00+19wnw448052 0.0 101329
26 october, tue
tue2600:00+19nnw610760 0.0 1012101
03:00+19nw813680 0.0 1011194
06:00+19nw1119630 0.0 1012296
09:00+20nw1015640 0.0 1014243
12:00+22wnw913640 0.0 1014108
15:00+21wnw66710 0.0 101345
18:00+23nw710690 0.0 101363
21:00+21nnw55780 0.0 101431
27 october, wed
wed2700:00+20nnw44780 0.0 101518
03:00+19nnw12760 0.0 101511
06:00+18w23830 0.0 101825
09:00+19wnw46760 0.0 102059
12:00+21wsw34730 0.0 102020
15:00+21ssw33690 0.0 102015
18:00+22e55690 0.0 102031
21:00+20ne56760 0.0 102147